CAPE
50 10 3 95 150 144 1 43 76 244 117 63 214 220 396 102 159 156 140 395 451 336 326 617 733 629 557 558 452 380 299 282 65 311 445 707 688 714 673 576 831 896 1036 1016 1097 835 699 752 1062 1361 1220 1011 1415 1367 1534 1392 1143 1074 973 1226 1160 1430 1050 868 606 369 213 170 94 308 32 168 23 11 18 34 55 9 55 33 0 0 0 0 0 0
5 16 3 1 12 8 173 138 226 243 80 139 159 280 250 395 150 296 442 253 643 227 224 449 441 543 539 525 366 356 239 243 110 373 702 566 661 565 527 484 479 739 985 1048 878 781 1002 1298 1134 965 1295 1326 1454 1359 1461 1584 1391 1088 752 817 1081 1174 967 921 714 609 814 366 258 236 26 11 14 12 10 31 25 8 11 29 6 0 0 0 0 0
6 13 25 47 22 14 224 247 226 213 105 95 114 86 178 162 320 388 491 594 534 556 189 325 375 232 304 229 252 285 397 299 90 491 534 345 301 465 423 648 571 588 796 934 953 771 1158 1311 1272 1127 1137 1288 1290 1091 1293 1345 1391 1122 1024 1196 1145 1039 950 914 881 753 826 588 521 140 170 10 17 18 22 7 28 14 14 26 4 0 0 0 0 0
26 68 80 123 139 150 348 174 136 87 205 120 13 22 37 99 135 148 141 275 436 409 268 201 156 260 133 45 180 146 224 56 530 632 1161 920 851 367 401 560 524 504 666 784 896 1052 943 715 858 1012 1023 1051 858 1280 791 766 1361 1069 1189 1183 1450 1156 1026 843 814 957 562 614 443 309 132 60 65 350 54 36 17 12 4 13 8 0 0 0 0 0
73 142 61 209 308 299 410 272 154 180 156 181 214 14 88 32 22 209 63 216 249 307 72 155 149 174 276 173 276 307 362 456 641 701 510 434 640 762 713 919 616 689 1024 1169 1092 1076 1012 838 890 951 958 1106 1064 1080 1352 1488 1295 899 834 1251 1176 1100 1108 855 965 806 651 638 519 426 235 96 131 1 266 10 15 9 18 4 11 4 0 0 0 0
20 39 107 162 421 264 254 291 98 20 0 44 146 203 60 101 81 169 584 447 443 337 165 151 45 177 270 209 365 420 576 488 713 768 741 628 598 687 712 627 764 778 821 1074 830 949 1054 982 1012 1216 1007 1119 836 1110 1307 1105 1249 1018 992 961 1288 1263 979 892 815 746 819 866 628 330 280 95 33 33 63 56 15 40 12 2 5 6 0 0 0 0
50 65 244 226 238 128 93 200 211 195 45 0 46 64 111 145 55 194 547 278 223 220 189 148 61 56 214 279 264 149 349 405 755 714 651 738 689 560 703 624 470 779 908 655 1303 1233 950 1201 1124 1298 1366 1176 859 828 1085 1160 1412 984 1033 1156 1302 1189 1007 950 730 712 875 606 452 284 138 109 61 9 17 28 27 27 59 17 641 12 0 0 0 0
28 53 96 108 278 60 48 30 103 33 51 84 18 37 1 41 288 326 386 124 268 190 257 87 180 429 234 175 145 107 140 302 399 495 624 648 824 578 537 500 592 766 941 877 914 927 1044 1163 1013 1238 1366 1387 1197 1697 1078 1128 1375 1342 1292 1326 1271 1116 1001 551 726 467 785 591 472 511 131 70 40 6 113 29 33 58 12 12 19 25 18 0 0 0
143 101 69 64 78 95 32 146 226 118 73 52 6 32 236 454 150 252 232 271 202 7 123 33 186 14 34 73 70 59 139 105 229 472 480 569 481 661 567 458 553 701 757 769 729 1170 1241 1420 1202 1238 1057 1255 1588 1187 1505 1498 1474 1451 1206 1632 1093 1465 1029 948 773 488 332 631 505 601 253 118 80 25 64 24 32 20 13 11 723 14 18 466 0 0
67 116 89 27 73 102 66 60 102 180 89 164 292 212 349 216 289 364 138 46 269 216 41 170 283 36 52 41 105 55 169 132 219 358 374 426 463 295 362 479 616 635 598 698 953 782 925 1238 1284 1011 960 1090 1417 1377 1026 1171 1449 1287 1218 1135 1308 1243 995 870 810 628 409 316 383 637 263 115 47 12 25 28 42 72 31 16 37 30 18 21 17 0
103 2 19 23 164 272 186 220 224 146 154 367 283 161 271 67 127 27 20 2 65 12 152 29 188 17 58 103 31 24 49 240 172 152 284 393 390 264 282 544 774 518 718 627 650 666 873 1074 1143 1041 1319 1450 792 692 741 756 972 1539 1416 971 1041 1045 868 872 757 514 588 363 283 304 185 43 15 3 32 20 33 80 31 26 19 32 65 26 95 36
87 35 115 75 65 64 81 195 164 101 250 200 315 288 123 196 75 130 62 46 59 96 38 76 190 66 45 50 85 161 54 80 327 192 162 305 404 346 348 537 549 631 911 975 1181 866 971 1157 1292 1082 1148 909 711 575 625 711 1150 1456 1441 1421 1203 1120 1087 925 904 630 566 357 274 218 281 43 17 2 0 6 2 2 2 17 26 113 91 191 23 100
346 116 49 62 21 59 96 82 151 116 115 196 490 206 80 3 21 8 4 22 67 32 119 206 116 149 66 59 122 196 72 111 113 171 297 430 444 507 528 457 401 411 574 947 860 1211 1255 1275 1290 1341 980 975 1110 930 925 1041 1107 1128 1056 1020 1041 1056 1136 1097 927 908 745 515 373 325 261 158 210 2 0 0 3 0 11 41 10 39 88 43 11 48
7 21 78 28 4 41 78 149 44 124 150 184 237 268 113 3 3 2 95 47 6 143 178 194 137 9 18 17 141 349 384 199 222 295 419 553 430 438 471 880 1359 1459 912 812 746 941 1221 1174 1193 1369 1113 979 1168 1170 933 1316 1236 1196 962 1545 1073 1080 1272 1228 1070 960 832 627 683 590 341 184 117 17 0 0 10 6 0 66 30 14 20 62 69 52
52 51 36 8 99 19 30 90 47 232 24 195 112 92 22 216 196 16 46 36 33 47 105 18 13 9 138 19 556 205 756 626 376 22 360 587 1047 407 432 726 1196 640 707 716 785 1158 1216 1444 1378 1102 1288 1172 1008 1158 1432 1118 1107 947 1153 1454 1014 1143 1434 1411 1248 1123 934 803 672 586 429 318 198 4 0 76 0 18 5 10 2 35 209 95 23 11
83 5 0 0 0 3 60 52 52 83 175 168 78 125 230 426 66 117 214 244 114 76 28 14 16 45 19 52 60 149 524 382 36 226 267 388 469 747 583 908 1051 1066 800 871 780 1131 1188 1260 1143 972 1452 1381 1351 1330 1030 1229 1158 1299 1066 1096 1000 1409 1502 1566 1464 1234 1179 944 747 704 514 535 375 426 51 18 141 36 0 0 7 12 11 154 76 25
7 7 16 0 0 10 0 14 88 72 15 21 248 85 95 154 271 24 19 80 41 0 0 2 65 22 51 442 205 22 44 65 258 453 453 470 602 628 766 780 68 868 558 638 128 1310 1174 890 1313 1459 1314 1273 1356 1289 1196 1080 990 1183 1078 1000 1177 1405 1634 1517 1537 1581 1363 1333 1055 842 700 622 477 444 505 154 56 3 84 0 0 148 88 29 12 34
56 1 13 8 78 0 23 19 25 18 28 16 46 59 138 217 177 86 18 10 12 20 0 20 63 17 114 22 299 267 44 178 111 278 541 598 186 719 559 421 83 141 201 540 842 882 919 1199 1412 1407 1221 1018 1234 1169 1006 1088 1056 933 1409 1782 1924 1795 1833 1749 1487 1454 1350 1067 1236 1069 780 662 603 269 116 330 130 166 88 244 0 0 1 47 226 7
38 76 22 41 0 76 16 85 177 35 3 36 10 2 669 0 11 533 26 6 30 3 5 1 13 26 42 20 59 264 90 113 285 349 256 181 184 131 421 329 755 793 1067 1069 944 962 1084 1281 1434 1234 1414 1040 1161 1128 998 1109 1016 1414 1468 1516 1542 1378 1161 1253 1537 1614 1166 1317 1520 963 927 811 695 570 481 414 121 396 98 0 2 0 0 10 34 183
383 80 17 48 310 93 370 88 75 31 3 3 6 347 11 173 159 12 121 185 336 19 38 0 180 71 99 106 303 280 257 300 245 491 393 466 471 838 594 716 665 887 977 901 772 725 800 1146 1184 1192 911 1377 1359 1232 1004 972 1123 1344 1778 1478 1322 1461 1279 1288 995 930 1314 1126 1316 1152 803 1010 839 673 466 399 605 360 222 6 20 0 0 0 0 15
188 66 16 49 83 11 80 274 162 57 5 18 114 404 196 2 153 208 406 198 330 24 40 2 9 87 109 181 145 414 548 465 503 667 742 600 732 774 577 802 788 828 909 1063 884 746 1025 881 1152 1059 1152 1275 1418 1424 1597 1582 1351 1500 1722 1570 1350 1182 1227 1212 1221 983 917 1003 1100 945 980 858 1025 865 617 600 470 347 151 79 49 68 26 1 0 0
24 33 19 13 50 48 10 0 64 267 208 443 7 38 2 2 2 35 22 134 173 34 68 96 2 28 215 337 302 393 570 478 553 801 701 541 804 1052 1192 818 703 806 856 924 1381 1242 1150 1585 1683 1405 1329 1243 1515 1650 1483 1295 1088 1361 1345 1343 1142 938 918 1000 934 931 908 858 996 1348 1295 1104 1226 1012 502 799 770 755 522 538 468 478 510 131 0 0
176 94 86 73 21 62 0 37 57 0 161 146 282 14 6 28 276 13 9 45 63 56 176 84 36 18 237 513 700 317 487 429 487 706 577 624 794 960 1035 1051 1030 860 602 945 1241 1363 974 786 1072 1121 1002 1074 980 1075 961 1038 926 1105 1411 1306 1049 801 930 696 669 681 866 986 1276 1341 1136 730 911 744 766 1003 1078 986 874 1127 645 266 227 322 149 46
941 28 68 79 5 0 0 50 38 74 28 25 18 640 14 220 91 153 21 187 43 41 12 51 55 49 54 322 118 300 524 513 458 448 571 681 706 761 826 931 1031 905 858 731 668 1019 771 786 904 780 708 779 908 1205 1070 863 818 938 1061 982 913 845 795 704 670 851 858 954 1077 853 814 856 883 1097 992 734 1157 1158 1422 1473 954 691 633 213 200 0
10 199 284 226 16 5 0 93 9 106 298 188 255 64 7 3 60 48 83 222 26 12 278 21 29 121 185 570 742 445 224 366 462 466 564 605 558 647 723 891 934 782 556 784 893 868 1001 866 689 703 495 267 881 985 1312 1028 1018 853 755 792 710 776 943 804 681 707 701 726 1178 1465 1320 902 1200 1229 1252 1228 1295 1279 1451 1334 1098 837 461 404 233 209
148 276 152 96 1 1 1 4 6 186 256 162 19 31 10 74 62 29 17 29 52 86 50 64 41 13 300 70 205 154 352 384 337 322 342 462 662 505 537 483 576 682 474 580 999 1165 1122 723 903 1110 920 602 616 909 1121 1076 1131 759 797 1041 897 948 1056 1266 1252 1467 1412 1464 1379 1521 1521 1274 1084 1261 1177 1137 1136 1131 1083 1076 996 832 764 415 358 369
342 226 192 62 81 98 46 33 0 41 80 99 26 86 68 83 77 104 194 132 112 195 105 299 309 251 134 70 121 607 458 351 356 299 468 482 453 544 629 586 640 722 744 803 654 652 714 759 726 931 807 762 954 733 848 882 742 856 841 1189 1175 1318 1393 1287 1461 1224 1173 1269 1089 1169 1116 1439 1554 1347 1264 1237 1122 1107 938 787 725 627 347 363 442 537
178 73 202 380 440 102 50 82 48 118 97 104 29 24 107 125 186 282 161 173 227 233 32 62 224 403 422 351 323 331 317 389 529 381 411 423 466 340 486 582 700 582 562 523 644 724 630 585 618 748 854 743 626 830 790 966 963 1258 1213 1071 1004 1226 1267 1145 1476 1264 1144 1463 1136 1095 1036 1271 1324 1262 1446 1382 1234 1103 1082 948 858 751 594 429 418 292
204 2 97 278 376 228 33 34 33 66 38 70 14 120 114 53 66 111 102 65 153 86 68 344 376 334 316 269 254 360 377 478 688 591 487 327 470 548 356 369 302 340 318 337 415 495 474 480 569 484 513 617 621 772 833 756 724 960 761 726 788 886 1044 1501 1347 1295 1006 994 1316 1432 1549 1668 1554 1317 1235 1198 1154 1141 1021 1037 902 786 473 353 430 369
132 360 309 117 132 50 56 107 142 264 277 9 121 9 62 68 103 120 234 365 484 296 324 414 413 352 222 219 247 335 343 374 457 466 381 368 384 385 318 336 271 222 192 226 302 312 366 221 414 445 497 449 487 577 693 718 735 723 707 704 759 786 869 1144 1195 1115 1020 955 1048 1034 988 1021 1300 1321 1190 1089 1092 922 864 830 716 635 500 606 493 401
456 24 138 273 305 364 69 23 94 259 58 60 31 127 65 153 138 157 242 512 614 534 436 462 392 265 153 239 274 251 275 295 410 419 304 256 275 299 226 234 231 86 161 178 169 238 112 145 219 294 345 440 449 479 419 467 573 727 644 677 742 752 816 887 819 1068 895 955 916 1030 1013 946 1089 1120 966 732 848 706 940 821 797 645 608 592 793 733
333 91 157 206 29 222 206 161 10 68 32 56 254 237 127 119 302 100 355 573 684 638 546 456 305 209 123 234 301 352 323 324 299 374 279 215 197 161 120 97 56 41 33 30 25 23 48 54 51 88 127 170 236 299 284 379 478 499 504 526 509 646 723 749 896 836 974 904 879 840 801 942 1015 958 744 547 599 667 762 722 845 624 703 821 634 723
243 235 111 165 131 52 43 26 620 385 172 74 573 349 327 172 322 457 579 536 376 491 423 223 301 228 258 269 388 380 341 154 124 63 190 80 73 29 26 18 24 3 0 1 1 0 1 0 1 1 4 5 14 34 64 126 227 218 178 443 382 403 487 622 706 790 788 806 761 815 742 690 746 876 756 736 904 870 796 840 864 777 439 531 716 722
240 236 134 231 151 34 266 413 83 55 69 89 327 526 505 258 345 604 595 603 738 727 596 411 274 248 281 364 393 283 189 138 130 64 122 126 63 24 0 0 0 0 0 0 0 0 0 1 2 0 0 1 2 2 1 108 126 179 144 133 160 176 238 220 230 343 746 680 678 662 793 753 759 746 830 757 706 716 678 760 652 808 844 578 523 411
417 277 108 305 25 14 209 210 21 70 87 464 649 310 500 568 498 598 646 687 584 431 449 311 308 229 373 412 244 147 131 76 1 10 6 1 6 0 0 0 0 0 0 0 0 0 0 0 0 0 0 0 2 1 2 0 2 2 5 13 19 31 47 43 15 87 122 171 247 468 571 558 714 645 600 590 601 706 590 670 880 642 659 657 515 419
308 168 293 86 90 109 57 42 29 22 538 579 76 511 456 487 387 669 622 468 613 529 319 317 410 433 286 118 152 82 27 0 0 0 0 0 0 0 0 0 0 0 0 0 0 0 0 0 0 0 3 0 0 0 0 2 1 1 1 1 1 1 5 14 19 25 33 13 28 88 136 237 337 456 526 531 542 737 704 740 648 558 663 604 558 477
349 336 168 56 113 35 51 21 173 504 518 586 639 282 442 155 408 381 296 597 480 421 461 360 393 304 158 174 136 78 30 3 0 0 0 0 0 0 0 0 0 0 0 0 0 0 0 0 0 0 2 0 0 0 1 2 2 2 1 2 0 0 1 2 1 3 6 2 10 22 58 45 87 238 320 304 376 343 462 528 432 437 341 364 316 296
231 181 20 95 47 120 0 2 59 286 119 167 528 577 766 919 591 628 650 352 353 462 531 480 348 252 211 227 216 210 134 85 8 0 0 0 0 0 0 0 0 0 0 0 0 0 0 0 0 0 0 4 0 0 0 0 0 1 2 2 1 0 0 0 0 0 0 1 2 8 18 14 2 60 95 128 146 222 305 340 351 258 214 202 139 189
96 245 254 80 46 20 3 1 14 46 71 266 465 590 951 1009 847 662 436 360 467 654 437 375 423 361 355 500 468 349 448 311 78 0 0 0 0 0 0 0 0 0 0 0 0 0 0 0 0 0 0 0 0 0 1 0 0 0 0 0 0 0 0 0 0 0 0 0 0 1 0 2 2 6 15 6 40 94 86 125 186 327 270 152 19 7
458 41 26 65 22 14 19 0 18 387 44 512 542 681 628 730 576 491 115 166 214 184 264 90 32 405 508 510 429 472 414 292 26 0 0 0 0 0 0 0 0 0 0 0 0 0 0 0 0 0 0 0 0 0 0 0 0 0 0 0 0 0 0 0 0 0 0 0 0 0 0 0 0 0 0 1 10 34 37 80 116 65 10 3 3 7
125 94 8 26 0 22 0 0 122 181 514 739 594 492 588 572 482 258 47 210 229 240 214 612 404 417 511 475 449 270 8 22 0 0 0 0 0 0 0 0 0 0 0 0 0 0 0 0 0 0 0 0 0 0 0 0 0 0 0 0 0 0 0 0 0 0 0 0 0 0 0 0 0 0 0 0 0 36 58 72 114 49 8 4 6 6
412 191 62 24 5 4 47 0 1 176 659 753 602 775 597 665 90 27 382 522 490 488 355 295 235 328 500 413 230 25 0 0 0 0 0 0 0 0 0 0 0 0 0 0 0 0 0 0 0 0 0 0 0 0 0 0 0 0 0 0 0 1 0 0 0 0 0 0 0 0 0 0 0 0 0 0 0 0 24 43 24 56 30 13 14 10
259 189 62 28 32 0 2 0 10 57 527 629 758 716 326 701 391 372 611 529 527 360 228 133 206 247 205 131 30 0 0 0 0 0 0 0 0 0 0 0 0 0 0 0 0 0 0 0 0 0 0 0 0 0 0 0 0 0 0 0 0 0 0 0 0 0 0 0 0 0 0 0 0 0 0 0 0 0 0 2 18 19 96 68 27 30
477 199 38 93 46 0 0 0 22 442 416 238 238 99 699 765 603 329 127 470 298 358 200 176 173 175 94 27 0 0 0 0 0 0 0 0 0 0 0 0 0 0 0 0 0 0 0 0 0 0 0 0 0 0 0 0 0 0 0 0 0 0 0 0 0 0 0 0 0 0 0 0 0 0 0 0 0 0 0 0 1 13 17 14 24 59
347 330 357 148 96 61 17 128 341 299 357 619 478 35 707 812 634 552 412 198 163 62 85 42 32 15 10 1 0 0 0 0 0 0 0 0 0 0 0 0 0 0 0 0 0 0 0 0 0 0 0 0 0 0 0 0 0 0 0 0 0 0 0 0 0 0 0 0 0 0 0 0 0 0 0 0 0 0 0 0 0 0 0 2 19 15
309 462 605 518 412 430 348 424 32 334 307 36 173 478 665 459 470 127 26 4 6 16 35 10 2 3 2 1 1 2 0 0 0 0 0 0 0 0 0 0 0 0 0 0 0 0 0 0 0 0 0 0 0 0 0 0 0 0 0 0 0 0 0 0 0 0 0 0 0 0 0 0 0 0 0 0 0 0 0 0 0 0 0 0 0 0
242 388 463 422 395 226 26 39 68 450 381 229 407 625 374 523 492 239 35 53 29 5 0 1 0 1 1 0 0 0 0 0 0 0 0 0 0 0 0 0 0 0 0 0 0 0 0 0 0 0 0 0 0 0 0 0 0 0 0 0 0 0 0 0 0 0 0 0 0 0 0 0 0 1 0 0 0 0 0 0 0 0 0 0 0 0
238 237 101 399 237 309 36 204 371 277 403 284 414 344 367 129 43 44 64 44 4 0 0 0 0 0 0 0 0 0 0 0 0 0 0 0 0 0 0 0 0 0 0 0 0 0 0 0 0 0 0 0 0 0 0 0 0 0 0 0 0 0 0 0 0 0 0 0 0 0 0 0 0 0 6 1 0 0 0 0 0 0 0 0 0 0
240 62 67 336 42 48 13 17 3 9 20 130 22 3 8 42 24 2 0 0 0 0 0 0 0 0 0 0 0 0 0 0 0 0 0 0 0 0 0 0 0 0 0 0 0 0 0 0 0 0 0 0 0 0 0 0 0 0 0 0 0 0 0 0 0 0 0 0 0 0 0 0 0 0 0 0 5 0 0 0 0 0 0 0 0 0
164 106 87 313 224 35 9 140 299 39 33 10 12 9 16 2 0 0 0 0 0 0 0 0 0 0 0 0 0 0 0 0 0 0 0 0 0 0 0 0 0 0 0 0 0 0 0 0 0 0 0 0 0 0 0 0 0 0 0 0 0 0 0 0 0 0 0 0 0 0 0 0 0 0 0 0 0 0 0 0 0 0 0 0 0 0
287 416 337 76 28 56 12 185 4 208 7 23 8 0 0 0 0 0 0 0 0 0 0 0 0 0 0 0 0 0 0 0 0 0 0 0 0 0 0 0 0 0 0 0 0 0 0 0 0 0 0 0 0 0 0 0 0 0 0 0 0 0 0 0 0 0 0 0 0 0 0 0 0 0 0 0 0 0 0 0 0 0 0 0 0 0
Wind_Speed
nan nan nan nan 20 21 nan nan nan 24 7 nan 12 12 11 15 14 14 11 11 7 11 13 15 20 21 19 18 20 20 19 19 nan 17 13 17 18 18 17 14 14 14 15 17 18 17 16 16 19 19 19 18 18 18 14 14 16 19 21 20 20 19 19 17 17 15 13 12 nan 12 nan 12 nan nan nan nan nan nan nan nan nan nan nan nan nan nan
nan nan nan nan nan nan 15 12 25 19 nan 7 9 11 11 10 12 10 6 9 12 11 12 16 19 17 15 12 14 19 17 15 15 19 10 11 14 16 17 16 15 16 19 19 16 14 11 17 18 17 19 18 19 18 14 10 18 17 20 20 20 19 18 17 16 14 8 11 11 12 nan nan nan nan nan nan nan nan nan nan nan nan nan nan nan nan
nan nan nan nan nan nan 24 21 17 15 12 nan 12 nan 15 12 19 24 20 15 14 16 14 14 16 14 13 12 13 14 15 16 nan 12 10 7 12 15 17 17 17 17 18 17 13 9 14 16 17 16 16 18 19 17 12 13 15 18 19 19 19 18 17 16 14 11 8 10 12 10 12 nan nan nan nan nan nan nan nan nan nan nan nan nan nan nan
nan nan nan 18 15 18 17 18 15 nan 15 13 nan nan nan nan 13 19 24 20 10 14 16 12 13 10 4 nan 8 7 8 nan 10 16 20 20 14 10 12 12 14 15 15 12 8 8 13 15 11 14 17 19 18 15 12 14 15 18 18 19 17 17 16 15 12 8 11 9 12 11 13 nan nan 13 nan nan nan nan nan nan nan nan nan nan nan nan
nan 15 nan 11 11 14 13 11 14 16 16 14 16 nan nan nan nan 14 nan 10 5 16 nan 8 10 7 4 4 9 8 5 7 3 12 14 12 9 12 16 15 13 14 13 10 8 9 11 11 9 13 17 18 16 14 15 15 16 16 18 18 15 15 14 12 9 11 10 9 10 11 12 nan 11 nan 13 nan nan nan nan nan nan nan nan nan nan nan
nan nan 12 9 9 9 12 13 nan nan nan nan 17 18 nan 17 nan 16 7 6 9 9 9 4 nan 4 3 5 10 12 9 8 11 11 13 10 6 7 11 15 17 15 13 11 9 9 9 9 11 13 17 17 15 14 15 16 14 16 16 17 14 14 12 10 11 10 8 9 9 12 12 nan nan nan nan nan nan nan nan nan nan nan nan nan nan nan
nan nan 14 7 5 11 nan 16 13 11 nan nan nan nan 19 15 nan 9 6 8 10 11 9 10 nan nan 9 8 12 15 12 11 13 13 14 12 9 11 13 14 15 12 13 12 15 10 8 10 12 13 15 15 14 14 16 15 13 14 15 15 14 12 9 11 11 8 8 10 9 9 11 11 nan nan nan nan nan nan nan nan 11 nan nan nan nan nan
nan nan nan 11 5 nan nan nan 3 nan nan nan nan nan nan nan 15 8 7 13 15 17 12 nan 9 9 10 10 13 16 13 11 14 14 13 11 9 9 9 10 9 9 12 16 10 7 8 11 13 12 13 13 14 15 17 14 11 13 14 14 12 9 9 9 11 8 9 10 9 7 9 nan nan nan 14 nan nan nan nan nan nan nan nan nan nan nan
16 13 nan nan nan nan nan 11 10 14 nan nan nan nan 10 19 8 7 11 14 13 nan 10 nan 10 nan nan nan nan nan 12 10 11 12 10 9 7 7 7 8 8 9 12 13 8 6 11 11 13 12 12 13 17 15 16 13 12 11 13 14 11 6 10 7 10 9 9 9 8 7 10 10 nan nan nan nan nan nan nan nan 14 nan nan 15 nan nan
nan 7 nan nan nan 10 nan nan 12 10 nan 10 14 14 17 18 15 14 14 nan 16 14 nan 6 5 nan nan nan 15 nan 13 12 11 9 8 7 6 5 6 9 12 13 18 8 7 7 7 11 11 12 9 15 17 17 14 13 10 11 11 12 8 5 8 8 8 9 10 9 8 9 11 10 nan nan nan nan nan nan nan nan nan nan nan nan nan nan
9 nan nan nan 11 9 8 5 11 11 10 12 11 12 14 nan 14 nan nan nan nan nan 10 nan 5 nan nan 5 nan nan nan 13 11 11 10 8 6 4 6 12 15 15 16 6 4 7 9 9 10 11 14 16 20 14 11 12 10 9 11 9 9 6 8 9 9 9 10 10 8 11 12 nan nan nan nan nan nan nan nan nan nan nan nan nan nan nan
nan nan 9 nan nan nan nan 9 5 5 5 7 9 8 3 3 nan 11 nan nan nan nan nan nan 6 nan nan nan nan 19 nan nan 16 12 9 7 6 6 9 12 14 18 17 2 5 13 11 10 10 12 13 14 17 15 12 11 10 8 7 8 8 9 10 11 10 10 11 10 9 11 12 nan nan nan nan nan nan nan nan nan nan 18 nan 17 nan 17
8 4 nan nan nan nan nan nan 1 2 3 6 7 8 nan nan nan nan nan nan nan nan 10 5 6 4 nan nan 18 22 nan 21 13 12 15 11 8 6 8 10 14 23 22 6 7 10 11 10 8 9 12 13 14 14 14 10 8 7 7 8 10 11 12 11 11 11 11 10 9 12 12 12 14 nan nan nan nan nan nan nan nan nan nan nan nan nan
nan nan nan nan nan nan nan 4 nan 1 2 3 3 6 10 nan nan nan nan nan nan 4 11 9 13 nan nan nan 21 23 24 23 22 14 14 17 14 9 8 15 23 23 14 11 8 10 9 8 7 8 10 12 10 10 13 10 10 11 10 10 6 9 13 12 12 11 11 10 10 13 13 12 15 nan nan nan nan nan nan nan nan nan nan nan nan nan
nan nan nan nan nan nan nan nan nan 4 nan 4 5 nan nan 13 10 nan nan nan nan nan 9 nan nan nan 10 nan 13 15 20 23 17 nan 14 19 21 9 8 13 18 16 15 17 8 7 10 9 7 5 7 9 9 8 10 9 12 9 10 6 10 11 11 12 13 12 12 12 11 12 12 13 13 nan nan nan nan nan nan nan nan nan 22 nan nan nan
nan nan nan nan nan nan nan nan nan nan 6 6 nan 8 8 8 nan 8 8 6 6 nan nan nan nan nan nan nan nan 9 20 18 nan 6 7 11 16 21 17 17 16 15 17 14 10 6 5 7 6 5 6 8 8 8 7 7 6 9 9 6 7 9 10 10 11 13 13 13 13 12 10 10 12 12 nan nan 13 nan nan nan nan nan nan 21 nan nan
nan nan nan nan nan nan nan nan nan nan nan nan 10 nan nan 4 4 nan nan nan nan nan nan nan nan nan nan 15 16 nan nan nan 7 8 7 8 14 20 16 16 nan 11 8 7 3 4 2 7 6 7 8 6 6 8 7 5 7 7 4 9 8 10 12 9 9 11 14 14 13 12 10 8 10 12 12 15 nan nan nan nan nan 18 nan nan nan nan
nan nan nan nan nan nan nan nan nan nan nan nan nan nan 4 9 4 nan nan nan nan nan nan nan nan nan 10 nan 18 10 nan 7 5 0 1 3 6 1 2 8 nan 5 5 8 10 9 8 6 7 9 9 10 9 9 8 7 5 4 5 6 8 12 14 13 10 8 17 11 10 10 10 8 8 11 11 14 15 15 nan 20 nan nan nan nan 22 nan
nan nan nan nan nan nan nan nan 11 nan nan nan nan nan 9 nan nan 14 nan nan nan nan nan nan nan nan nan nan nan 10 nan 4 4 7 8 9 9 9 9 11 10 5 5 6 6 6 6 2 3 5 8 7 7 6 7 8 8 7 5 6 8 11 13 13 10 9 13 12 9 6 8 9 10 9 9 14 16 15 nan nan nan nan nan nan nan 21
6 nan nan nan 11 nan 10 nan nan nan nan nan nan 19 nan 12 12 nan 9 11 10 nan nan nan 9 nan nan 9 9 8 9 9 7 4 6 8 10 9 10 11 10 6 5 6 6 5 5 5 5 8 7 3 5 5 8 6 2 7 6 8 9 11 11 10 8 9 16 15 7 2 5 9 11 12 10 10 13 16 15 nan nan nan nan nan nan nan
2 nan nan nan nan nan nan 14 10 nan nan nan 14 13 11 nan 9 6 8 10 12 nan nan nan nan nan 8 11 6 5 8 7 5 6 6 8 11 13 14 8 9 9 7 8 9 5 3 4 3 5 4 6 8 8 8 8 8 4 5 9 10 10 9 9 9 14 16 9 3 6 8 9 12 13 13 11 13 14 16 nan nan nan nan nan nan nan
nan nan nan nan nan nan nan nan nan 14 13 15 nan nan nan nan nan nan nan 4 16 nan nan nan nan nan 13 8 10 4 5 7 7 8 8 9 11 12 13 13 11 7 8 8 8 8 8 6 4 3 4 6 6 4 5 6 3 2 5 8 10 11 10 12 12 11 7 7 10 11 10 9 14 14 14 14 14 16 17 17 19 19 19 21 nan nan
2 nan nan nan nan nan nan nan nan nan 11 13 15 nan nan nan 10 nan nan nan nan nan 9 nan nan nan 14 13 11 5 4 4 5 7 7 8 10 11 13 14 13 14 9 4 6 7 11 7 3 6 8 8 7 5 4 2 4 4 6 8 10 10 8 11 15 15 14 12 12 13 11 9 10 12 14 14 13 14 14 16 19 19 17 17 19 nan
5 nan nan nan nan nan nan nan nan nan nan nan nan 10 nan 5 nan 6 nan 4 nan nan nan nan nan nan nan 16 7 3 4 6 7 8 8 8 9 11 13 14 14 14 11 9 6 5 8 10 8 9 10 9 4 1 5 6 4 8 9 9 9 9 9 10 10 12 12 12 10 8 11 10 10 13 13 12 15 15 16 17 18 19 17 16 17 nan
nan 5 6 5 nan nan nan nan nan 7 4 2 8 nan nan nan nan nan nan 1 nan nan 8 nan nan 4 4 13 8 4 6 8 8 7 9 10 10 11 13 13 13 14 12 11 9 9 9 11 12 11 10 7 1 1 5 8 6 9 6 6 11 15 19 21 22 23 22 20 16 15 18 16 15 17 18 16 14 14 16 16 17 18 16 15 15 15
11 6 4 nan nan nan nan nan nan 3 7 11 nan nan nan nan nan nan nan nan nan nan nan nan nan nan 5 nan 8 10 8 11 13 12 12 12 11 12 13 14 14 15 14 12 9 7 9 9 8 9 10 12 13 10 11 10 13 16 17 14 13 16 18 19 18 18 19 18 16 14 16 20 20 18 17 17 17 16 14 14 14 15 16 15 14 15
11 8 8 nan nan nan nan nan nan nan nan nan nan nan nan nan nan 10 10 9 7 8 12 12 10 9 8 nan 6 7 9 12 12 13 13 13 14 14 13 14 14 14 16 16 14 11 11 13 13 11 12 10 11 12 14 14 14 14 13 13 13 13 14 14 14 14 14 13 14 13 14 16 17 17 16 17 18 19 18 15 14 13 13 15 16 16
12 nan 11 14 15 13 nan nan nan 4 nan 12 nan nan 16 16 16 14 10 9 11 11 nan nan 9 10 10 10 11 11 11 10 10 12 11 11 13 14 14 15 17 17 16 16 15 15 15 14 14 13 13 12 13 13 12 12 12 11 11 13 13 13 13 13 15 14 13 15 15 13 13 13 12 14 17 17 17 18 17 16 15 14 14 14 13 14
11 nan nan 12 12 16 nan nan nan nan nan nan nan 15 17 nan nan 13 11 nan 4 nan nan 7 11 13 12 12 13 13 14 12 11 10 10 13 13 16 17 19 19 20 20 19 19 17 16 16 15 14 14 13 12 12 12 11 13 13 13 13 14 14 14 14 13 15 16 14 13 13 13 13 14 15 16 17 17 17 16 15 14 14 15 15 15 16
9 9 8 10 13 nan nan 24 16 14 18 nan 15 nan nan nan 17 15 13 10 13 14 13 12 14 14 12 13 13 14 15 16 14 15 14 16 17 17 18 19 20 20 21 20 20 19 17 17 17 17 17 15 14 13 12 12 11 12 12 12 12 14 15 15 16 14 15 15 16 16 14 14 15 17 17 18 19 19 16 16 14 15 15 15 15 13
10 nan 12 12 7 10 nan nan nan 15 nan nan nan 14 nan 16 17 18 16 16 17 17 16 17 17 15 13 15 15 15 16 18 19 19 19 19 18 18 19 20 20 nan 20 20 20 21 20 18 18 19 19 18 16 16 15 14 14 12 13 14 15 16 16 17 17 18 15 15 13 15 15 16 16 18 20 20 20 21 21 21 22 20 17 16 18 19
10 nan 15 10 nan 9 15 13 nan nan nan nan 19 17 14 12 14 13 11 8 12 16 19 19 16 15 15 16 15 17 18 20 21 20 20 20 21 20 21 nan nan nan nan nan nan nan nan nan nan nan 21 20 19 19 19 18 18 17 18 18 18 18 19 19 19 18 16 15 16 17 17 18 18 21 23 21 21 21 19 18 17 20 21 23 23 21
16 14 14 14 13 nan nan nan 27 16 19 nan 17 15 10 14 15 16 16 16 16 17 16 12 16 17 17 17 18 19 20 20 20 nan 19 nan nan nan nan nan nan nan nan nan nan nan nan nan nan nan nan nan nan nan nan 22 22 21 22 23 22 21 19 19 19 19 19 18 19 20 20 19 20 21 23 23 22 22 22 21 23 25 24 24 26 26
16 14 12 15 14 nan 15 15 nan nan nan nan 13 14 19 15 13 15 16 16 16 10 14 18 20 20 20 20 21 22 21 21 20 nan 19 19 nan nan nan nan nan nan nan nan nan nan nan nan nan nan nan nan nan nan nan 22 25 26 25 25 25 23 22 22 22 21 19 19 20 21 21 21 21 22 23 24 25 24 23 23 22 25 26 25 27 28
20 16 14 16 nan nan 16 14 nan nan nan 17 15 17 18 17 19 21 21 20 19 22 25 25 24 23 22 22 24 25 25 nan nan nan nan nan nan nan nan nan nan nan nan nan nan nan nan nan nan nan nan nan nan nan nan nan nan nan nan nan nan nan nan nan nan nan 23 22 21 21 21 22 23 23 25 26 27 27 27 26 25 26 26 27 27 25
22 21 18 nan nan 15 nan nan nan nan 14 15 nan 18 23 25 25 25 23 21 21 22 24 25 25 26 25 26 26 nan nan nan nan nan nan nan nan nan nan nan nan nan nan nan nan nan nan nan nan nan nan nan nan nan nan nan nan nan nan nan nan nan nan nan nan nan nan nan nan nan 24 24 25 25 26 27 27 28 28 27 28 27 25 25 26 26
23 22 20 nan 18 nan nan nan 19 20 16 14 19 18 18 20 20 20 20 21 22 17 23 26 28 27 27 26 27 nan nan nan nan nan nan nan nan nan nan nan nan nan nan nan nan nan nan nan nan nan nan nan nan nan nan nan nan nan nan nan nan nan nan nan nan nan nan nan nan nan nan nan nan 27 27 28 28 29 28 27 27 27 25 25 26 27
21 21 nan nan nan 20 nan nan nan 18 17 20 20 25 23 21 24 27 27 27 23 21 23 26 28 26 25 25 24 23 21 nan nan nan nan nan nan nan nan nan nan nan nan nan nan nan nan nan nan nan nan nan nan nan nan nan nan nan nan nan nan nan nan nan nan nan nan nan nan nan nan nan nan nan nan 27 27 27 28 28 28 28 28 28 27 27
nan 27 26 nan nan nan nan nan nan nan nan 23 18 21 23 20 20 21 23 24 23 25 26 21 22 18 20 20 19 16 11 12 nan nan nan nan nan nan nan nan nan nan nan nan nan nan nan nan nan nan nan nan nan nan nan nan nan nan nan nan nan nan nan nan nan nan nan nan nan nan nan nan nan nan nan nan nan nan nan 26 27 29 29 29 nan nan
23 nan nan nan nan nan nan nan nan 25 nan 19 15 18 19 20 17 18 17 20 24 25 25 nan nan 14 18 17 14 11 8 11 nan nan nan nan nan nan nan nan nan nan nan nan nan nan nan nan nan nan nan nan nan nan nan nan nan nan nan nan nan nan nan nan nan nan nan nan nan nan nan nan nan nan nan nan nan nan nan nan 25 nan nan nan nan nan
16 nan nan nan nan nan nan nan 20 22 23 22 20 20 18 18 19 17 nan 25 27 24 20 23 22 19 18 18 14 13 nan nan nan nan nan nan nan nan nan nan nan nan nan nan nan nan nan nan nan nan nan nan nan nan nan nan nan nan nan nan nan nan nan nan nan nan nan nan nan nan nan nan nan nan nan nan nan nan nan nan 25 nan nan nan nan nan
19 18 nan nan nan nan nan nan nan 23 23 22 25 22 19 16 nan nan 24 27 29 25 20 19 21 20 19 17 14 nan nan nan nan nan nan nan nan nan nan nan nan nan nan nan nan nan nan nan nan nan nan nan nan nan nan nan nan nan nan nan nan nan nan nan nan nan nan nan nan nan nan nan nan nan nan nan nan nan nan nan nan nan nan nan nan nan
22 17 nan nan nan nan nan nan nan nan 22 21 26 23 22 20 24 25 25 26 25 24 22 21 20 21 20 20 nan nan nan nan nan nan nan nan nan nan nan nan nan nan nan nan nan nan nan nan nan nan nan nan nan nan nan nan nan nan nan nan nan nan nan nan nan nan nan nan nan nan nan nan nan nan nan nan nan nan nan nan nan nan nan nan nan nan
23 19 nan nan nan nan nan nan nan 24 28 28 26 nan 25 28 26 24 21 25 20 19 19 19 19 18 nan nan nan nan nan nan nan nan nan nan nan nan nan nan nan nan nan nan nan nan nan nan nan nan nan nan nan nan nan nan nan nan nan nan nan nan nan nan nan nan nan nan nan nan nan nan nan nan nan nan nan nan nan nan nan nan nan nan nan nan
22 22 21 21 nan nan nan 23 29 26 24 24 26 nan 22 24 21 21 22 21 21 nan nan nan nan nan nan nan nan nan nan nan nan nan nan nan nan nan nan nan nan nan nan nan nan nan nan nan nan nan nan nan nan nan nan nan nan nan nan nan nan nan nan nan nan nan nan nan nan nan nan nan nan nan nan nan nan nan nan nan nan nan nan nan nan nan
27 25 22 24 22 22 26 27 nan 20 22 nan 24 15 19 19 19 18 nan nan nan nan nan nan nan nan nan nan nan nan nan nan nan nan nan nan nan nan nan nan nan nan nan nan nan nan nan nan nan nan nan nan nan nan nan nan nan nan nan nan nan nan nan nan nan nan nan nan nan nan nan nan nan nan nan nan nan nan nan nan nan nan nan nan nan nan
23 19 19 23 22 18 nan nan nan 25 26 26 25 23 23 20 18 16 nan nan nan nan nan nan nan nan nan nan nan nan nan nan nan nan nan nan nan nan nan nan nan nan nan nan nan nan nan nan nan nan nan nan nan nan nan nan nan nan nan nan nan nan nan nan nan nan nan nan nan nan nan nan nan nan nan nan nan nan nan nan nan nan nan nan nan nan
20 18 22 25 24 23 nan 25 26 25 24 24 23 22 21 18 nan nan nan nan nan nan nan nan nan nan nan nan nan nan nan nan nan nan nan nan nan nan nan nan nan nan nan nan nan nan nan nan nan nan nan nan nan nan nan nan nan nan nan nan nan nan nan nan nan nan nan nan nan nan nan nan nan nan nan nan nan nan nan nan nan nan nan nan nan nan
19 nan nan 19 nan nan nan nan nan nan nan 18 nan nan nan nan nan nan nan nan nan nan nan nan nan nan nan nan nan nan nan nan nan nan nan nan nan nan nan nan nan nan nan nan nan nan nan nan nan nan nan nan nan nan nan nan nan nan nan nan nan nan nan nan nan nan nan nan nan nan nan nan nan nan nan nan nan nan nan nan nan nan nan nan nan nan
17 24 nan 24 25 nan nan 25 24 nan nan nan nan nan nan nan nan nan nan nan nan nan nan nan nan nan nan nan nan nan nan nan nan nan nan nan nan nan nan nan nan nan nan nan nan nan nan nan nan nan nan nan nan nan nan nan nan nan nan nan nan nan nan nan nan nan nan nan nan nan nan nan nan nan nan nan nan nan nan nan nan nan nan nan nan nan
26 22 19 nan nan nan nan 25 nan 20 nan nan nan nan nan nan nan nan nan nan nan nan nan nan nan nan nan nan nan nan nan nan nan nan nan nan nan nan nan nan nan nan nan nan nan nan nan nan nan nan nan nan nan nan nan nan nan nan nan nan nan nan nan nan nan nan nan nan nan nan nan nan nan nan nan nan nan nan nan nan nan nan nan nan nan nan
Wind_Direction
nan nan nan nan 76 99 nan nan nan 102 166 nan 200 183 186 182 197 227 203 154 183 165 168 192 199 209 213 216 211 210 208 205 nan 142 176 205 210 216 221 230 238 240 240 242 238 229 239 245 242 249 262 260 264 267 266 282 286 287 292 297 299 297 304 303 300 297 303 293 nan 277 nan 286 nan nan nan nan nan nan nan nan nan nan nan nan nan nan
nan nan nan nan nan nan 92 66 81 105 nan 146 181 180 178 187 183 187 156 121 168 155 180 192 195 197 205 212 209 207 201 171 152 134 174 207 226 220 224 227 228 225 225 230 225 221 219 238 242 246 247 260 266 262 271 285 293 301 302 302 299 298 300 297 295 297 297 284 282 278 nan nan nan nan nan nan nan nan nan nan nan nan nan nan nan nan
nan nan nan nan nan nan 75 93 93 109 124 nan 144 nan 165 165 175 165 145 139 146 158 183 184 199 189 192 188 200 202 200 176 nan 146 158 211 243 235 230 222 219 221 220 220 216 224 226 234 242 244 251 256 264 275 293 301 303 299 297 294 293 294 293 291 291 294 290 273 267 268 270 nan nan nan nan nan nan nan nan nan nan nan nan nan nan nan
nan nan nan 60 72 87 114 111 87 nan 112 123 nan nan nan nan 164 149 135 131 146 165 191 180 204 213 244 nan 199 192 223 nan 131 159 192 193 204 223 246 240 233 232 228 227 225 241 237 242 250 256 261 258 261 278 305 291 291 290 282 286 286 289 284 285 292 293 272 263 269 263 277 nan nan 288 nan nan nan nan nan nan nan nan nan nan nan nan
nan 60 nan 76 100 117 124 112 91 97 96 105 120 nan nan nan nan 115 nan 96 134 148 nan 202 181 210 263 173 217 215 231 261 211 190 199 202 187 180 194 220 248 260 255 248 248 244 251 261 265 269 267 273 281 295 285 286 292 289 289 285 288 284 283 289 288 282 280 264 266 268 270 nan 287 nan 291 nan nan nan nan nan nan nan nan nan nan nan
nan nan 39 57 75 122 131 115 nan nan nan nan 93 108 nan 86 nan 102 122 149 176 176 160 177 nan 219 227 199 217 220 217 237 230 210 205 204 201 204 205 210 221 240 261 258 255 264 259 266 270 271 279 283 292 292 289 284 286 283 287 291 286 281 285 292 283 285 283 274 263 267 281 nan nan nan nan nan nan nan nan nan nan nan nan nan nan nan
nan nan 63 85 112 142 nan 134 156 135 nan nan nan nan 93 105 nan 111 129 148 176 182 182 146 nan nan 230 213 209 209 223 239 229 214 213 214 213 210 222 218 211 228 239 235 254 266 278 270 267 274 277 283 293 287 281 283 286 290 287 283 286 281 283 283 290 295 280 268 273 290 297 298 nan nan nan nan nan nan nan nan 295 nan nan nan nan nan
nan nan nan 66 69 nan nan nan 115 nan nan nan nan nan nan nan 90 118 134 164 173 163 176 nan 193 197 203 220 214 207 218 231 223 211 213 216 227 238 240 249 233 232 248 240 246 288 291 286 287 286 287 288 286 279 272 262 273 279 281 278 275 277 281 296 295 309 285 282 286 297 300 nan nan nan 307 nan nan nan nan nan nan nan nan nan nan nan
58 49 nan nan nan nan nan 86 62 31 nan nan nan nan 68 111 123 139 153 169 169 nan 171 nan 213 nan nan nan nan nan 212 215 205 206 208 219 231 248 253 261 268 261 265 266 257 286 306 295 293 296 294 292 282 274 276 277 267 269 271 265 275 263 291 285 299 314 299 287 298 302 285 288 nan nan nan nan nan nan nan nan 284 nan nan 285 nan nan
nan 82 nan nan nan 79 nan nan 74 82 nan 120 130 139 144 150 172 183 178 nan 176 161 nan 183 131 nan nan nan 210 nan 203 194 192 195 204 214 223 233 245 268 278 268 266 280 283 275 286 295 292 290 293 290 275 261 259 257 243 271 264 270 292 311 297 302 309 310 303 299 302 288 287 291 nan nan nan nan nan nan nan nan nan nan nan nan nan nan
48 nan nan nan 77 88 93 114 113 103 115 132 138 144 160 nan 156 nan nan nan nan nan 184 nan 229 nan nan 207 nan nan nan 186 196 201 205 212 227 247 271 282 288 284 287 302 277 269 250 264 295 292 280 274 260 277 284 256 255 264 272 280 306 332 308 318 320 314 306 297 305 286 289 nan nan nan nan nan nan nan nan nan nan nan nan nan nan nan
nan nan 80 nan nan nan nan 124 126 113 149 142 159 144 111 135 nan 121 nan nan nan nan nan nan 196 nan nan nan nan 177 nan nan 184 193 190 217 245 265 276 283 292 284 271 289 251 264 287 287 272 280 280 279 292 304 285 250 249 264 271 301 326 336 325 325 321 316 303 299 300 283 295 nan nan nan nan nan nan nan nan nan nan 304 nan 304 nan 294
90 41 nan nan nan nan nan nan 34 198 188 187 176 159 nan nan nan nan nan nan nan nan 162 184 144 158 nan nan 167 165 nan 170 169 185 185 194 226 252 271 279 272 268 276 341 267 272 275 274 294 301 301 296 298 287 290 287 291 304 318 329 340 342 331 322 318 310 295 295 289 285 288 290 287 nan nan nan nan nan nan nan nan nan nan nan nan nan
nan nan nan nan nan nan nan 126 nan 141 240 219 193 144 122 nan nan nan nan nan nan 163 171 170 149 nan nan nan 179 169 167 159 150 166 198 177 184 211 238 250 245 250 277 287 286 283 291 309 333 325 310 306 294 293 301 308 312 326 333 323 327 343 325 314 308 299 289 285 271 276 282 288 287 nan nan nan nan nan nan nan nan nan nan nan nan nan
nan nan nan nan nan nan nan nan nan 191 nan 22 60 nan nan 129 134 nan nan nan nan nan 173 nan nan nan 163 nan 161 155 157 157 148 nan 192 183 185 194 235 240 250 245 237 248 250 293 315 330 335 302 293 291 286 297 312 340 320 309 297 307 336 344 320 312 306 294 288 276 271 268 277 285 289 nan nan nan nan nan nan nan nan nan 301 nan nan nan
nan nan nan nan nan nan nan nan nan nan 117 99 nan 88 104 106 nan 139 157 193 209 nan nan nan nan nan nan nan nan 136 144 140 nan 173 186 179 192 206 214 224 231 224 210 217 215 237 309 314 307 305 293 286 306 324 330 327 289 289 285 328 342 324 302 298 294 288 284 276 274 275 279 287 294 286 nan nan 292 nan nan nan nan nan nan 298 nan nan
nan nan nan nan nan nan nan nan nan nan nan nan 84 nan nan 223 229 nan nan nan nan nan nan nan nan nan nan 122 138 nan nan nan 137 168 168 185 202 215 206 218 nan 212 192 200 309 131 32 321 324 318 306 300 315 342 338 291 258 251 319 344 352 314 292 281 273 277 279 280 282 294 297 297 292 288 288 295 nan nan nan nan nan 278 nan nan nan nan
nan nan nan nan nan nan nan nan nan nan nan nan nan nan 19 310 10 nan nan nan nan nan nan nan nan nan 91 nan 99 108 nan 177 216 216 182 247 273 309 163 237 nan 255 262 3 358 340 330 313 347 329 322 340 351 340 324 295 278 344 32 330 290 264 268 258 253 276 276 271 284 294 309 312 296 299 305 297 302 297 nan 294 nan nan nan nan 295 nan
nan nan nan nan nan nan nan nan 66 nan nan nan nan nan 151 nan nan 111 nan nan nan nan nan nan nan nan nan nan nan 155 nan 184 199 198 195 204 220 247 252 252 272 296 315 315 294 264 242 250 10 331 306 337 331 312 307 305 352 346 328 296 283 278 272 264 254 253 261 267 260 281 306 309 303 290 292 293 297 289 nan nan nan nan nan nan nan 296
24 nan nan nan 80 nan 75 nan nan nan nan nan nan 130 nan 89 136 nan 141 131 144 nan nan nan 129 nan nan 144 171 188 188 190 208 211 208 217 225 221 247 252 264 274 296 295 288 295 270 187 226 239 246 263 298 313 305 325 4 289 295 279 272 268 276 278 283 259 252 238 228 320 313 312 312 313 315 300 298 309 312 nan nan nan nan nan nan nan
76 nan nan nan nan nan nan 66 59 nan nan nan 110 105 130 nan 190 167 149 155 134 nan nan nan nan nan 162 146 166 203 174 174 209 219 211 229 231 233 243 266 268 276 289 285 278 276 249 256 267 294 309 283 247 235 254 267 282 316 318 312 291 284 287 296 283 254 245 251 48 22 340 322 319 322 318 321 321 320 317 nan nan nan nan nan nan nan
nan nan nan nan nan nan nan nan nan 55 82 117 nan nan nan nan nan nan nan 157 111 nan nan nan nan nan 135 139 130 158 134 161 193 208 214 224 228 233 239 250 266 269 265 261 260 270 275 254 263 285 282 292 277 274 281 291 286 286 295 280 283 284 287 276 267 261 302 2 23 1 334 322 320 327 323 325 328 320 318 313 310 308 305 304 nan nan
212 nan nan nan nan nan nan nan nan nan 98 124 119 nan nan nan 235 nan nan nan nan nan 166 nan nan nan 122 126 134 180 191 200 207 226 234 237 231 233 242 250 249 249 254 270 281 284 289 297 299 286 265 255 274 298 294 295 308 324 290 279 278 286 291 300 299 321 352 7 6 354 325 316 321 313 328 330 317 308 306 300 302 306 307 303 298 nan
313 nan nan nan nan nan nan nan nan nan nan nan nan 146 nan 136 nan 1 nan 133 nan nan nan nan nan nan nan 117 166 213 238 219 207 209 244 249 249 252 259 259 256 253 251 253 264 283 278 292 289 260 250 235 205 217 266 276 265 241 249 268 278 287 298 286 306 320 338 1 353 328 299 308 312 302 289 306 313 316 312 303 299 296 298 303 304 nan
nan 223 139 137 nan nan nan nan nan 15 26 108 105 nan nan nan nan nan nan 156 nan nan 123 nan nan 212 154 139 135 243 254 256 262 255 245 254 247 247 254 258 263 266 260 246 235 233 245 251 266 286 286 290 356 52 312 274 267 277 283 331 337 352 348 349 350 336 343 355 353 339 327 320 314 312 318 322 315 312 309 307 304 305 311 306 308 308
215 199 186 nan nan nan nan nan nan 195 176 158 nan nan nan nan nan nan nan nan nan nan nan nan nan nan 220 nan 189 191 231 257 258 256 252 253 266 274 268 268 268 270 282 289 284 271 257 268 272 264 283 305 327 345 315 329 318 323 344 352 339 339 340 339 338 335 334 333 336 333 322 320 332 330 326 326 326 323 317 311 310 311 313 320 318 310
216 201 163 nan nan nan nan nan nan nan nan nan nan nan nan nan nan 266 239 232 234 220 221 224 251 277 280 nan 195 166 196 232 243 246 245 242 246 253 261 264 266 268 275 281 286 289 284 280 284 292 286 293 297 307 309 310 315 316 324 330 334 325 324 322 323 322 330 327 323 331 330 329 330 328 327 326 324 320 321 321 321 323 327 323 323 317
230 nan 189 186 168 158 nan nan nan 213 nan 250 nan nan 229 228 231 234 246 253 280 262 nan nan 278 262 255 260 271 270 256 237 229 234 247 252 254 257 254 254 260 259 260 267 274 275 275 270 270 273 273 271 280 282 290 298 305 317 310 305 310 314 314 317 322 321 325 326 324 326 331 331 326 324 327 325 321 319 317 318 317 319 314 317 321 325
215 nan nan 185 175 161 nan nan nan nan nan nan nan 244 242 nan nan 251 250 nan 238 nan nan 314 287 280 280 279 278 277 277 267 264 263 265 270 265 270 278 279 278 276 273 270 265 265 267 272 274 268 264 264 265 270 271 284 297 297 293 291 293 294 295 307 316 317 315 313 322 323 324 324 325 321 317 313 308 303 305 308 316 317 317 315 317 317
208 237 211 184 177 nan nan 156 159 194 242 nan 239 nan nan nan 252 256 265 254 261 286 307 301 282 277 280 281 278 278 283 286 285 284 284 284 281 278 274 270 269 269 270 271 276 276 276 280 285 287 285 279 278 277 282 287 284 284 288 285 286 294 299 306 302 304 306 314 317 317 316 318 318 316 313 305 303 305 307 311 323 322 319 317 306 305
210 nan 224 215 203 189 nan nan nan 240 nan nan nan 237 nan 245 248 257 261 263 273 281 283 281 276 275 273 279 285 283 282 288 291 294 287 280 283 280 277 272 269 nan 272 275 279 281 284 284 286 290 290 290 291 295 294 293 293 295 290 293 293 291 292 294 298 297 296 295 297 300 310 307 303 304 294 294 303 314 325 331 328 317 309 304 301 299
232 nan 217 208 nan 184 169 141 nan nan nan nan 236 227 234 238 249 248 251 265 275 288 290 286 285 289 290 282 282 284 286 284 283 283 284 287 285 285 283 nan nan nan nan nan nan nan nan nan nan nan 289 291 293 296 295 293 294 297 297 296 295 294 293 293 294 294 293 293 295 289 288 291 289 291 297 301 301 302 305 301 303 300 299 299 292 291
231 227 234 226 209 nan nan nan 186 243 253 nan 240 227 230 261 256 254 248 252 269 286 292 289 287 292 295 291 286 282 279 276 277 nan 277 nan nan nan nan nan nan nan nan nan nan nan nan nan nan nan nan nan nan nan nan 296 298 297 297 297 295 296 293 292 291 291 293 296 296 296 297 297 296 298 299 303 308 309 307 307 299 297 297 296 297 295
239 238 241 238 234 nan 203 218 nan nan nan nan 244 235 246 255 262 264 262 257 248 262 266 276 286 293 293 288 285 285 282 282 282 nan 277 277 nan nan nan nan nan nan nan nan nan nan nan nan nan nan nan nan nan nan nan 299 299 300 298 296 296 295 296 295 292 291 290 289 290 291 293 293 296 297 299 301 300 300 296 295 300 299 300 301 301 300
252 250 236 243 nan nan 227 211 nan nan nan 247 245 246 253 282 272 268 263 262 268 273 281 285 290 291 287 285 287 287 285 nan nan nan nan nan nan nan nan nan nan nan nan nan nan nan nan nan nan nan nan nan nan nan nan nan nan nan nan nan nan nan nan nan nan nan 296 295 293 293 292 292 292 292 295 296 297 302 300 300 298 296 297 299 299 303
245 245 232 nan nan 246 nan nan nan nan 257 254 nan 246 256 266 273 274 268 266 272 283 288 289 289 286 286 285 285 nan nan nan nan nan nan nan nan nan nan nan nan nan nan nan nan nan nan nan nan nan nan nan nan nan nan nan nan nan nan nan nan nan nan nan nan nan nan nan nan nan 294 293 293 291 290 290 293 293 293 293 292 294 293 294 293 294
246 246 247 nan 246 nan nan nan 251 261 260 258 258 264 271 275 286 285 282 279 280 283 288 289 288 286 285 286 286 nan nan nan nan nan nan nan nan nan nan nan nan nan nan nan nan nan nan nan nan nan nan nan nan nan nan nan nan nan nan nan nan nan nan nan nan nan nan nan nan nan nan nan nan 292 290 289 289 289 290 290 289 291 293 290 289 289
239 239 nan nan nan 256 nan nan nan 258 253 260 251 262 258 256 262 276 279 278 277 281 280 284 282 283 287 292 291 289 291 nan nan nan nan nan nan nan nan nan nan nan nan nan nan nan nan nan nan nan nan nan nan nan nan nan nan nan nan nan nan nan nan nan nan nan nan nan nan nan nan nan nan nan nan 291 289 290 292 292 293 291 292 291 290 288
nan 246 242 nan nan nan nan nan nan nan nan 253 249 254 252 255 268 277 277 274 280 276 263 256 270 283 293 282 282 291 297 298 nan nan nan nan nan nan nan nan nan nan nan nan nan nan nan nan nan nan nan nan nan nan nan nan nan nan nan nan nan nan nan nan nan nan nan nan nan nan nan nan nan nan nan nan nan nan nan 293 297 300 298 298 nan nan
258 nan nan nan nan nan nan nan nan 245 nan 268 275 264 259 256 267 268 273 276 271 269 283 nan nan 288 279 281 281 280 286 304 nan nan nan nan nan nan nan nan nan nan nan nan nan nan nan nan nan nan nan nan nan nan nan nan nan nan nan nan nan nan nan nan nan nan nan nan nan nan nan nan nan nan nan nan nan nan nan nan 298 nan nan nan nan nan
262 nan nan nan nan nan nan nan 242 250 247 251 260 262 259 248 252 263 nan 270 270 276 278 282 291 292 287 283 286 287 nan nan nan nan nan nan nan nan nan nan nan nan nan nan nan nan nan nan nan nan nan nan nan nan nan nan nan nan nan nan nan nan nan nan nan nan nan nan nan nan nan nan nan nan nan nan nan nan nan nan 304 nan nan nan nan nan
271 265 nan nan nan nan nan nan nan 239 245 253 257 250 244 253 nan nan 261 267 275 276 275 274 281 289 292 293 291 nan nan nan nan nan nan nan nan nan nan nan nan nan nan nan nan nan nan nan nan nan nan nan nan nan nan nan nan nan nan nan nan nan nan nan nan nan nan nan nan nan nan nan nan nan nan nan nan nan nan nan nan nan nan nan nan nan
266 264 nan nan nan nan nan nan nan nan 257 254 256 253 245 246 254 258 263 263 266 269 266 263 271 281 285 285 nan nan nan nan nan nan nan nan nan nan nan nan nan nan nan nan nan nan nan nan nan nan nan nan nan nan nan nan nan nan nan nan nan nan nan nan nan nan nan nan nan nan nan nan nan nan nan nan nan nan nan nan nan nan nan nan nan nan
256 259 nan nan nan nan nan nan nan 252 258 249 243 nan 239 245 257 265 271 271 274 271 269 271 276 283 nan nan nan nan nan nan nan nan nan nan nan nan nan nan nan nan nan nan nan nan nan nan nan nan nan nan nan nan nan nan nan nan nan nan nan nan nan nan nan nan nan nan nan nan nan nan nan nan nan nan nan nan nan nan nan nan nan nan nan nan
250 251 243 256 nan nan nan 249 244 239 237 239 246 nan 242 243 250 260 263 267 268 nan nan nan nan nan nan nan nan nan nan nan nan nan nan nan nan nan nan nan nan nan nan nan nan nan nan nan nan nan nan nan nan nan nan nan nan nan nan nan nan nan nan nan nan nan nan nan nan nan nan nan nan nan nan nan nan nan nan nan nan nan nan nan nan nan
247 249 253 251 255 261 252 253 nan 245 251 nan 246 238 250 253 254 251 nan nan nan nan nan nan nan nan nan nan nan nan nan nan nan nan nan nan nan nan nan nan nan nan nan nan nan nan nan nan nan nan nan nan nan nan nan nan nan nan nan nan nan nan nan nan nan nan nan nan nan nan nan nan nan nan nan nan nan nan nan nan nan nan nan nan nan nan
246 255 252 256 259 257 nan nan nan 248 251 257 260 259 257 250 246 246 nan nan nan nan nan nan nan nan nan nan nan nan nan nan nan nan nan nan nan nan nan nan nan nan nan nan nan nan nan nan nan nan nan nan nan nan nan nan nan nan nan nan nan nan nan nan nan nan nan nan nan nan nan nan nan nan nan nan nan nan nan nan nan nan nan nan nan nan
244 230 253 253 253 251 nan 262 256 248 241 244 250 254 254 258 nan nan nan nan nan nan nan nan nan nan nan nan nan nan nan nan nan nan nan nan nan nan nan nan nan nan nan nan nan nan nan nan nan nan nan nan nan nan nan nan nan nan nan nan nan nan nan nan nan nan nan nan nan nan nan nan nan nan nan nan nan nan nan nan nan nan nan nan nan nan
246 nan nan 255 nan nan nan nan nan nan nan 237 nan nan nan nan nan nan nan nan nan nan nan nan nan nan nan nan nan nan nan nan nan nan nan nan nan nan nan nan nan nan nan nan nan nan nan nan nan nan nan nan nan nan nan nan nan nan nan nan nan nan nan nan nan nan nan nan nan nan nan nan nan nan nan nan nan nan nan nan nan nan nan nan nan nan
254 252 nan 267 262 nan nan 263 266 nan nan nan nan nan nan nan nan nan nan nan nan nan nan nan nan nan nan nan nan nan nan nan nan nan nan nan nan nan nan nan nan nan nan nan nan nan nan nan nan nan nan nan nan nan nan nan nan nan nan nan nan nan nan nan nan nan nan nan nan nan nan nan nan nan nan nan nan nan nan nan nan nan nan nan nan nan
237 238 250 nan nan nan nan 250 nan 239 nan nan nan nan nan nan nan nan nan nan nan nan nan nan nan nan nan nan nan nan nan nan nan nan nan nan nan nan nan nan nan nan nan nan nan nan nan nan nan nan nan nan nan nan nan nan nan nan nan nan nan nan nan nan nan nan nan nan nan nan nan nan nan nan nan nan nan nan nan nan nan nan nan nan nan nan